Flag for Canada Weather past 2 weeks in Edmonton, Alberta, Canada

Now
61 °F

Cool.


Feels Like: 61 °F
Forecast: 59 / 69 °F
Wind: 7 mph from East

Location: Edmonton Municipal

Current Time: Jun 30, 2015 at 9:09:35 AM

Latest Report: Jun 30, 2015 at 8:00 AM


Visibility: N/A

Pressure: 30.00 "Hg

Humidity: 93%

Dew point: 58 °F

Location of EdmontonLocation

Historic Weather in Edmonton — Graph

°F

Edmonton temperature yesterday

Maximum temperature yesterday: 76 °F (at 12:00 AM)
Minimum temperature yesterday: 62 °F (at 11:00 PM)
Average temperature yesterday: 68 °F

Past Weeks' High & Low Weather Summary

 TemperatureHumidityPressure
High89 °F (Jun 28, 4:00 PM)97% (Jun 19, 8:00 PM)30.28 "Hg (Jun 19, 8:00 PM)
Low47 °F (Jun 15, 7:00 AM)18% (Jun 28, 7:00 PM)29.77 "Hg (Jun 19, 2:00 PM)
Average65 °F55%29.99 "Hg
* Reported Jun 15 7:00 AM — Jun 30 7:00 AM, Edmonton, Weather by CustomWeather, © 2015

Note: Actual official high and low records may vary slightly from our data, if they occured in-between our weather recording intervals... More about our weather records

Advertising

Edmonton weather history for previous 24 hours

 ConditionsComfort  
Time TempWeatherWind HumidityBarometerVisibility
7:00 AM
Tue, Jun 30
60 °FCool.5 mph94%29.99 "HgN/A
6:00 AM60 °FCool.2 mph87%29.99 "HgN/A
5:00 AM60 °FCool.7 mph93%29.98 "HgN/A
4:00 AM61 °FCool.3 mph93%29.97 "HgN/A
3:00 AM61 °FCool.5 mph92%29.98 "HgN/A
2:00 AM62 °FCool.1 mph87%29.99 "HgN/A
1:00 AM62 °FCool.2 mph90%29.99 "HgN/A
12:00 AM62 °FCool.1 mph91%29.98 "HgN/A
11:00 PM
Mon, Jun 29
62 °FMild.3 mph89%30.00 "HgN/A
10:00 PM63 °FMild.8 mph84%30.01 "HgN/A
9:00 PM64 °FMild.6 mph83%30.00 "HgN/A
8:00 PM64 °FMild.9 mph83%30.01 "HgN/A
7:00 PM64 °FMild.7 mph88%30.03 "HgN/A
6:00 PM64 °FMild.13 mph86%30.06 "HgN/A
5:00 PM66 °FMild.17 mph76%30.07 "HgN/A
4:00 PM70 °FMild.16 mph59%30.05 "HgN/A
3:00 PM72 °FMild.15 mph55%30.06 "HgN/A
2:00 PM69 °FMild.10 mph63%30.07 "HgN/A
1:00 PM72 °FMild.12 mph57%30.07 "HgN/A
12:00 PM69 °FMild.9 mph59%30.08 "HgN/A
11:00 AM67 °FMild.14 mph65%30.08 "HgN/A
10:00 AM65 °FMild.8 mph76%30.09 "HgN/A
9:00 AM70 °FMild.6 mph60%30.09 "HgN/A
Weather by CustomWeather, © 2015

See weather overviewHow to use our weather pages